Location: Abbey Hill
(34.0751°N, 84.0688°W)
Time: 11:28:27
(UTC+00:00)

X-37B - Visible Passes

Search period start: 20 September 2021 00:00
Search period end: 30 September 2021 00:00
Orbit: 381 x 393 km, 45.0° (Epoch: 29 August)

Date Brightness Start Highest point End Pass type
(mag) Time Alt. Az. Time Alt. Az. Time Alt. Az.
20 Sep 1.5 09:50:37 38° SSE 09:50:54 39° SE 09:53:54 10° ENE visible
21 Sep 1.1 10:27:29 23° W 10:29:07 44° NNW 10:32:10 10° NE visible
22 Sep 2.3 09:31:58 33° ENE 09:31:58 33° ENE 09:33:52 10° ENE visible
23 Sep 2.0 10:08:40 25° NW 10:09:05 26° NNW 10:11:48 10° NE visible
24 Sep 3.7 09:13:02 14° NE 09:13:02 14° NE 09:13:37 10° NE visible
24 Sep 3.0 10:46:04 10° NW 10:47:47 14° N 10:49:30 10° NNE visible
25 Sep 2.8 09:49:38 17° N 09:49:38 17° N 09:51:23 10° NNE visible
26 Sep 3.2 10:26:43 10° NNW 10:27:57 12° N 10:29:12 10° NNE visible
27 Sep 3.6 09:30:29 12° NNE 09:30:29 12° NNE 09:30:57 10° NNE visible
28 Sep 3.3 10:07:02 10° NNW 10:08:09 11° N 10:09:16 10° NNE visible
29 Sep 3.2 10:45:01 10° NNW 10:47:00 15° NNE 10:48:59 10° NE visible
